| time (UTC) | temp C | wind direction | speed KPH | gust KPH | rain 1hr cm | rain 24hr cm | rain mn cm | humidity % | barometer mb |
| 20260507132555 | 0 | 0 | 0.0 | 3.2 | 0.00 | 0.00 | 0.00 | 83 | 1026.8 |
| 20260507132055 | 0 | 0 | 0.0 | 3.2 | 0.00 | 0.00 | 0.00 | 83 | 1026.7 |
| 20260507131557 | 0 | 0 | 1.6 | 3.2 | 0.00 | 0.00 | 0.00 | 82 | 1026.6 |
| 20260507131056 | 0 | 0 | 0.0 | 0.0 | 0.00 | 0.00 | 0.00 | 82 | 1026.8 |
| 20260507130556 | 0 | 0 | 0.0 | 0.0 | 0.00 | 0.00 | 0.00 | 82 | 1026.7 |
| 20260507130105 | 0 | 0 | 0.0 | 1.6 | 0.00 | 0.00 | 0.00 | 83 | 1026.7 |
| 20260507125557 | 0 | 0 | 0.0 | 1.6 | 0.00 | 0.00 | 0.00 | 83 | 1026.7 |
| 20260507125058 | 0 | 0 | 0.0 | 1.6 | 0.00 | 0.00 | 0.00 | 83 | 1026.6 |
| 20260507124600 | 0 | 0 | 0.0 | 1.6 | 0.00 | 0.00 | 0.00 | 82 | 1026.7 |
| 20260507124056 | 0 | 0 | 0.0 | 0.0 | 0.00 | 0.00 | 0.00 | 82 | 1026.6 |
| 20260507123556 | 0 | 0 | 0.0 | 0.0 | 0.00 | 0.00 | 0.00 | 82 | 1026.5 |
| 20260507123059 | 1 | 0 | 0.0 | 0.0 | 0.00 | 0.00 | 0.00 | 83 | 1026.7 |
| 20260507122556 | 1 | 0 | 0.0 | 1.6 | 0.00 | 0.00 | 0.00 | 81 | 1026.7 |
| 20260507122056 | 1 | 0 | 0.0 | 1.6 | 0.00 | 0.00 | 0.00 | 82 | 1026.7 |
| 20260507121601 | 1 | 189 | 0.0 | 1.6 | 0.00 | 0.00 | 0.00 | 81 | 1026.7 |
| 20260507121059 | 1 | 0 | 0.0 | 1.6 | 0.00 | 0.00 | 0.00 | 80 | 1026.7 |
| 20260507120556 | 1 | 0 | 0.0 | 1.6 | 0.00 | 0.00 | 0.00 | 81 | 1026.8 |
| 20260507120058 | 1 | 0 | 0.0 | 1.6 | 0.00 | 0.00 | 0.00 | 81 | 1026.8 |
| 20260507115556 | 1 | 195 | 0.0 | 1.6 | 0.00 | 0.00 | 0.00 | 81 | 1026.7 |
| 20260507115056 | 1 | 196 | 0.0 | 3.2 | 0.00 | 0.00 | 0.00 | 83 | 1026.7 |
| 20260507114600 | 1 | 183 | 0.0 | 3.2 | 0.00 | 0.00 | 0.00 | 80 | 1026.7 |
| 20260507114056 | 1 | 179 | 0.0 | 0.0 | 0.00 | 0.00 | 0.00 | 80 | 1026.7 |
| 20260507113559 | 1 | 0 | 0.0 | 0.0 | 0.00 | 0.00 | 0.00 | 79 | 1026.7 |
| 20260507113059 | 1 | 0 | 0.0 | 0.0 | 0.00 | 0.00 | 0.00 | 81 | 1026.8 |
| 20260507112559 | 1 | 0 | 0.0 | 1.6 | 0.00 | 0.00 | 0.00 | 81 | 1026.8 |
| 20260507112059 | 1 | 0 | 0.0 | 1.6 | 0.00 | 0.00 | 0.00 | 78 | 1026.8 |
| 20260507111559 | 1 | 0 | 0.0 | 1.6 | 0.00 | 0.00 | 0.00 | 77 | 1026.9 |
| 20260507111057 | 1 | 0 | 0.0 | 0.0 | 0.00 | 0.00 | 0.00 | 76 | 1026.9 |
| 20260507110558 | 1 | 0 | 0.0 | 0.0 | 0.00 | 0.00 | 0.00 | 79 | 1026.9 |
| 20260507110103 | 2 | 0 | 0.0 | 0.0 | 0.00 | 0.00 | 0.00 | 77 | 1026.8 |
| 20260507105558 | 2 | 0 | 0.0 | 1.6 | 0.00 | 0.00 | 0.00 | 78 | 1026.8 |
| 20260507105057 | 2 | 0 | 0.0 | 3.2 | 0.00 | 0.00 | 0.00 | 75 | 1026.9 |
| 20260507104603 | 2 | 205 | 0.0 | 3.2 | 0.00 | 0.00 | 0.00 | 74 | 1026.8 |
| 20260507104056 | 2 | 0 | 0.0 | 0.0 | 0.00 | 0.00 | 0.00 | 74 | 1026.9 |
| 20260507103558 | 2 | 0 | 0.0 | 0.0 | 0.00 | 0.00 | 0.00 | 73 | 1027.0 |
| 20260507103129 | 2 | 0 | 0.0 | 3.2 | 0.00 | 0.00 | 0.00 | 72 | 1026.9 |
| 20260507102558 | 2 | 0 | 0.0 | 3.2 | 0.00 | 0.00 | 0.00 | 71 | 1026.9 |
| 20260507102058 | 3 | 0 | 0.0 | 1.6 | 0.00 | 0.00 | 0.00 | 70 | 1026.8 |
| 20260507101556 | 3 | 0 | 0.0 | 1.6 | 0.00 | 0.00 | 0.00 | 71 | 1026.9 |
| 20260507101100 | 3 | 0 | 0.0 | 1.6 | 0.00 | 0.00 | 0.00 | 73 | 1026.9 |
| 20260507100557 | 2 | 0 | 0.0 | 4.8 | 0.00 | 0.00 | 0.00 | 73 | 1026.9 |
| 20260507100110 | 2 | 173 | 0.0 | 4.8 | 0.00 | 0.00 | 0.00 | 73 | 1027.0 |
| 20260507095558 | 2 | 184 | 0.0 | 3.2 | 0.00 | 0.00 | 0.00 | 73 | 1027.0 |
| 20260507095057 | 2 | 0 | 0.0 | 1.6 | 0.00 | 0.00 | 0.00 | 74 | 1027.1 |
| 20260507094601 | 2 | 184 | 0.0 | 1.6 | 0.00 | 0.00 | 0.00 | 74 | 1027.1 |
| 20260507094058 | 2 | 0 | 0.0 | 1.6 | 0.00 | 0.00 | 0.00 | 74 | 1027.2 |
| 20260507093558 | 2 | 0 | 0.0 | 1.6 | 0.00 | 0.00 | 0.00 | 74 | 1027.2 |
| 20260507093102 | 3 | 0 | 0.0 | 0.0 | 0.00 | 0.00 | 0.00 | 74 | 1027.3 |
| 20260507092557 | 3 | 0 | 0.0 | 0.0 | 0.00 | 0.00 | 0.00 | 74 | 1027.3 |
| 20260507092058 | 3 | 0 | 0.0 | 0.0 | 0.00 | 0.00 | 0.00 | 74 | 1027.4 |
| 20260507091600 | 3 | 0 | 0.0 | 0.0 | 0.00 | 0.00 | 0.00 | 74 | 1027.7 |
| 20260507091058 | 3 | 0 | 0.0 | 1.6 | 0.00 | 0.00 | 0.00 | 74 | 1027.6 |
| 20260507090558 | 3 | 0 | 0.0 | 1.6 | 0.00 | 0.00 | 0.00 | 74 | 1027.6 |
| 20260507085558 | 3 | 0 | 0.0 | 3.2 | 0.00 | 0.00 | 0.00 | 75 | 1027.6 |
| 20260507085059 | 3 | 203 | 0.0 | 1.6 | 0.00 | 0.00 | 0.00 | 73 | 1027.6 |
| 20260507084606 | 4 | 0 | 0.0 | 0.0 | 0.00 | 0.00 | 0.00 | 72 | 1027.6 |
| 20260507084057 | 4 | 0 | 0.0 | 1.6 | 0.00 | 0.00 | 0.00 | 73 | 1027.5 |
| 20260507083558 | 4 | 0 | 0.0 | 1.6 | 0.00 | 0.00 | 0.00 | 73 | 1027.6 |
| 20260507083100 | 4 | 0 | 0.0 | 3.2 | 0.00 | 0.00 | 0.00 | 73 | 1027.6 |
| 20260507082557 | 4 | 0 | 0.0 | 3.2 | 0.00 | 0.00 | 0.00 | 73 | 1027.6 |
| 20260507082059 | 4 | 0 | 1.6 | 3.2 | 0.00 | 0.00 | 0.00 | 73 | 1027.5 |
| 20260507081601 | 4 | 186 | 0.0 | 3.2 | 0.00 | 0.00 | 0.00 | 71 | 1027.6 |
| 20260507081058 | 5 | 0 | 0.0 | 0.0 | 0.00 | 0.00 | 0.00 | 71 | 1027.5 |
| 20260507080558 | 5 | 0 | 0.0 | 0.0 | 0.00 | 0.00 | 0.00 | 71 | 1027.5 |
| 20260507080058 | 5 | 0 | 0.0 | 0.0 | 0.00 | 0.00 | 0.00 | 70 | 1027.5 |
| 20260507075601 | 5 | 0 | 0.0 | 3.2 | 0.00 | 0.00 | 0.00 | 71 | 1027.5 |
| 20260507075102 | 5 | 175 | 0.0 | 3.2 | 0.00 | 0.00 | 0.00 | 69 | 1027.5 |
| 20260507074608 | 5 | 206 | 0.0 | 3.2 | 0.00 | 0.00 | 0.00 | 68 | 1027.5 |
| 20260507074059 | 5 | 0 | 0.0 | 3.2 | 0.00 | 0.00 | 0.00 | 68 | 1027.7 |
| 20260507073558 | 6 | 0 | 0.0 | 3.2 | 0.00 | 0.00 | 0.00 | 67 | 1027.6 |
| 20260507073055 | 6 | 0 | 0.0 | 3.2 | 0.00 | 0.00 | 0.00 | 67 | 1027.6 |
| 20260507072559 | 6 | 0 | 0.0 | 0.0 | 0.00 | 0.00 | 0.00 | 66 | 1027.6 |
| 20260507072058 | 6 | 0 | 0.0 | 0.0 | 0.00 | 0.00 | 0.00 | 66 | 1027.7 |
| 20260507071606 | 6 | 0 | 0.0 | 1.6 | 0.00 | 0.00 | 0.00 | 64 | 1027.6 |
| 20260507071059 | 6 | 0 | 0.0 | 4.8 | 0.00 | 0.00 | 0.00 | 64 | 1027.5 |
| 20260507070559 | 6 | 190 | 0.0 | 4.8 | 0.00 | 0.00 | 0.00 | 63 | 1027.3 |
| 20260507070108 | 6 | 0 | 0.0 | 1.6 | 0.00 | 0.00 | 0.00 | 61 | 1027.3 |
| 20260507065558 | 6 | 229 | 0.0 | 1.6 | 0.00 | 0.00 | 0.00 | 64 | 1027.4 |
| 20260507065058 | 6 | 0 | 0.0 | 3.2 | 0.00 | 0.00 | 0.00 | 61 | 1027.3 |
| 20260507064602 | 6 | 169 | 0.0 | 3.2 | 0.00 | 0.00 | 0.00 | 61 | 1027.3 |
| 20260507064102 | 6 | 229 | 1.6 | 3.2 | 0.00 | 0.00 | 0.00 | 62 | 1027.3 |
| 20260507063557 | 7 | 0 | 0.0 | 1.6 | 0.00 | 0.00 | 0.00 | 63 | 1027.2 |
| 20260507063109 | 7 | 0 | 0.0 | 1.6 | 0.00 | 0.00 | 0.00 | 66 | 1027.1 |
| 20260507062600 | 7 | 0 | 0.0 | 1.6 | 0.00 | 0.00 | 0.00 | 59 | 1026.9 |
| 20260507062057 | 7 | 0 | 0.0 | 1.6 | 0.00 | 0.00 | 0.00 | 61 | 1026.8 |
| 20260507061559 | 7 | 0 | 0.0 | 3.2 | 0.00 | 0.00 | 0.00 | 61 | 1026.8 |
| 20260507061057 | 7 | 0 | 0.0 | 3.2 | 0.00 | 0.00 | 0.00 | 58 | 1026.8 |
| 20260507060558 | 7 | 0 | 0.0 | 1.6 | 0.00 | 0.00 | 0.00 | 56 | 1026.8 |
| 20260507060104 | 7 | 0 | 0.0 | 1.6 | 0.00 | 0.00 | 0.00 | 57 | 1026.9 |
| 20260507055558 | 7 | 0 | 0.0 | 1.6 | 0.00 | 0.00 | 0.00 | 58 | 1026.8 |
| 20260507055059 | 7 | 0 | 0.0 | 3.2 | 0.00 | 0.00 | 0.00 | 57 | 1026.9 |
| 20260507054616 | 7 | 0 | 0.0 | 6.4 | 0.00 | 0.00 | 0.00 | 56 | 1026.9 |
| 20260507054058 | 7 | 0 | 1.6 | 6.4 | 0.00 | 0.00 | 0.00 | 57 | 1026.9 |
| 20260507053600 | 7 | 245 | 1.6 | 4.8 | 0.00 | 0.00 | 0.00 | 55 | 1027.0 |
| 20260507053112 | 8 | 204 | 0.0 | 0.0 | 0.00 | 0.00 | 0.00 | 58 | 1026.9 |
| 20260507052558 | 8 | 0 | 0.0 | 1.6 | 0.00 | 0.00 | 0.00 | 54 | 1026.9 |
| 20260507052059 | 8 | 0 | 0.0 | 1.6 | 0.00 | 0.00 | 0.00 | 51 | 1026.7 |
| 20260507051600 | 8 | 0 | 0.0 | 1.6 | 0.00 | 0.00 | 0.00 | 50 | 1026.7 |
| 20260507051057 | 8 | 0 | 0.0 | 1.6 | 0.00 | 0.00 | 0.00 | 51 | 1026.6 |
| 20260507050557 | 9 | 0 | 0.0 | 0.0 | 0.00 | 0.00 | 0.00 | 50 | 1026.5 |
| 20260507050100 | 9 | 0 | 0.0 | 1.6 | 0.00 | 0.00 | 0.00 | 50 | 1026.5 |
| 20260507045558 | 9 | 0 | 0.0 | 1.6 | 0.00 | 0.00 | 0.00 | 50 | 1026.4 |
| 20260507045058 | 9 | 0 | 0.0 | 3.2 | 0.00 | 0.00 | 0.00 | 49 | 1026.5 |
| 20260507044603 | 9 | 0 | 0.0 | 3.2 | 0.00 | 0.00 | 0.00 | 48 | 1026.4 |
| 20260507044057 | 9 | 179 | 0.0 | 3.2 | 0.00 | 0.00 | 0.00 | 47 | 1026.3 |
| 20260507043558 | 10 | 202 | 1.6 | 3.2 | 0.00 | 0.00 | 0.00 | 47 | 1026.4 |
| 20260507043101 | 10 | 179 | 0.0 | 3.2 | 0.00 | 0.00 | 0.00 | 46 | 1026.3 |
| 20260507042603 | 10 | 166 | 0.0 | 3.2 | 0.00 | 0.00 | 0.00 | 47 | 1026.2 |
| 20260507042102 | 10 | 160 | 0.0 | 3.2 | 0.00 | 0.00 | 0.00 | 47 | 1026.0 |
| 20260507041609 | 10 | 20 | 0.0 | 3.2 | 0.00 | 0.00 | 0.00 | 46 | 1025.8 |
| 20260507041103 | 10 | 0 | 0.0 | 4.8 | 0.00 | 0.00 | 0.00 | 45 | 1025.8 |
| 20260507040559 | 11 | 0 | 0.0 | 4.8 | 0.00 | 0.00 | 0.00 | 43 | 1025.8 |
| 20260507040059 | 11 | 175 | 1.6 | 3.2 | 0.00 | 0.00 | 0.00 | 43 | 1025.8 |
| 20260507035558 | 11 | 0 | 0.0 | 3.2 | 0.00 | 0.00 | 0.00 | 43 | 1025.5 |
| 20260507035100 | 11 | 173 | 1.6 | 3.2 | 0.00 | 0.00 | 0.00 | 42 | 1025.5 |
| 20260507034608 | 12 | 0 | 0.0 | 3.2 | 0.00 | 0.00 | 0.00 | 41 | 1025.4 |
| 20260507034058 | 12 | 178 | 0.0 | 3.2 | 0.00 | 0.00 | 0.00 | 39 | 1025.5 |
| 20260507033558 | 12 | 248 | 0.0 | 3.2 | 0.00 | 0.00 | 0.00 | 39 | 1025.3 |
| 20260507033059 | 12 | 176 | 0.0 | 3.2 | 0.00 | 0.00 | 0.00 | 38 | 1025.3 |
| 20260507032602 | 13 | 189 | 0.0 | 4.8 | 0.00 | 0.00 | 0.00 | 39 | 1025.2 |
| 20260507032101 | 13 | 236 | 0.0 | 4.8 | 0.00 | 0.00 | 0.00 | 37 | 1025.1 |
| 20260507031601 | 13 | 172 | 1.6 | 4.8 | 0.00 | 0.00 | 0.00 | 38 | 1025.1 |
| 20260507031058 | 13 | 197 | 1.6 | 3.2 | 0.00 | 0.00 | 0.00 | 37 | 1025.0 |
| 20260507030557 | 13 | 200 | 0.0 | 3.2 | 0.00 | 0.00 | 0.00 | 37 | 1024.9 |
| 20260507030105 | 14 | 168 | 0.0 | 3.2 | 0.00 | 0.00 | 0.00 | 36 | 1024.9 |
| 20260507025557 | 15 | 0 | 0.0 | 3.2 | 0.00 | 0.00 | 0.00 | 34 | 1024.8 |
| 20260507025058 | 15 | 0 | 0.0 | 1.6 | 0.00 | 0.00 | 0.00 | 33 | 1024.7 |
| 20260507024559 | 16 | 0 | 0.0 | 8.0 | 0.00 | 0.00 | 0.00 | 31 | 1024.8 |
| 20260507024057 | 16 | 0 | 0.0 | 8.0 | 0.00 | 0.00 | 0.00 | 30 | 1024.5 |
| 20260507023558 | 16 | 103 | 0.0 | 6.4 | 0.00 | 0.00 | 0.00 | 30 | 1024.5 |
| 20260507023059 | 16 | 0 | 3.2 | 6.4 | 0.00 | 0.00 | 0.00 | 29 | 1024.5 |
| 20260507022559 | 16 | 62 | 1.6 | 9.7 | 0.00 | 0.00 | 0.00 | 30 | 1024.4 |
| 20260507022059 | 16 | 49 | 3.2 | 9.7 | 0.00 | 0.00 | 0.00 | 30 | 1024.4 |
| 20260507021627 | 17 | 261 | 4.8 | 9.7 | 0.00 | 0.00 | 0.00 | 30 | 1024.4 |
| 20260507021058 | 17 | 57 | 3.2 | 9.7 | 0.00 | 0.00 | 0.00 | 29 | 1024.2 |
| 20260507020558 | 17 | 53 | 4.8 | 12.9 | 0.00 | 0.00 | 0.00 | 28 | 1024.3 |
| 20260507020112 | 17 | 37 | 4.8 | 12.9 | 0.00 | 0.00 | 0.00 | 28 | 1024.3 |
| 20260507015603 | 17 | 0 | 0.0 | 4.8 | 0.00 | 0.00 | 0.00 | 29 | 1024.3 |
| 20260507015058 | 17 | 0 | 1.6 | 4.8 | 0.00 | 0.00 | 0.00 | 27 | 1024.4 |
| 20260507014623 | 17 | 0 | 0.0 | 8.0 | 0.00 | 0.00 | 0.00 | 26 | 1024.4 |
| 20260507014058 | 18 | 0 | 3.2 | 14.5 | 0.00 | 0.00 | 0.00 | 26 | 1024.4 |
| 20260507013557 | 18 | 75 | 4.8 | 14.5 | 0.00 | 0.00 | 0.00 | 26 | 1024.4 |
| 20260507013101 | 18 | 37 | 1.6 | 9.7 | 0.00 | 0.00 | 0.00 | 25 | 1024.4 |
| 20260507012557 | 19 | 61 | 3.2 | 9.7 | 0.00 | 0.00 | 0.00 | 25 | 1024.4 |
| 20260507012058 | 18 | 276 | 1.6 | 9.7 | 0.00 | 0.00 | 0.00 | 27 | 1024.5 |
| 20260507011600 | 18 | 28 | 3.2 | 12.9 | 0.00 | 0.00 | 0.00 | 24 | 1024.5 |
| 20260507011057 | 18 | 0 | 0.0 | 12.9 | 0.00 | 0.00 | 0.00 | 26 | 1024.5 |
| 20260507010557 | 19 | 52 | 4.8 | 11.3 | 0.00 | 0.00 | 0.00 | 24 | 1024.4 |
| 20260507010058 | 20 | 345 | 1.6 | 6.4 | 0.00 | 0.00 | 0.00 | 24 | 1024.3 |
| 20260507005558 | 20 | 24 | 1.6 | 6.4 | 0.00 | 0.00 | 0.00 | 24 | 1024.4 |
| 20260507005057 | 20 | 313 | 0.0 | 6.4 | 0.00 | 0.00 | 0.00 | 24 | 1024.4 |
| 20260507004558 | 20 | 314 | 0.0 | 4.8 | 0.00 | 0.00 | 0.00 | 26 | 1024.3 |
| 20260507004057 | 20 | 295 | 1.6 | 6.4 | 0.00 | 0.00 | 0.00 | 23 | 1024.2 |
| 20260507003557 | 19 | 0 | 0.0 | 14.5 | 0.00 | 0.00 | 0.00 | 24 | 1024.2 |
| 20260507003058 | 19 | 358 | 0.0 | 22.5 | 0.00 | 0.00 | 0.00 | 26 | 1024.2 |
| 20260507002557 | 18 | 266 | 8.0 | 22.5 | 0.00 | 0.00 | 0.00 | 24 | 1024.2 |
| 20260507002057 | 19 | 54 | 8.0 | 22.5 | 0.00 | 0.00 | 0.00 | 22 | 1024.2 |
| 20260507001606 | 20 | 4 | 1.6 | 8.0 | 0.00 | 0.00 | 0.00 | 22 | 1024.1 |
| 20260507001057 | 20 | 0 | 4.8 | 8.0 | 0.00 | 0.00 | 0.00 | 23 | 1024.1 |
| 20260507000600 | 20 | 326 | 3.2 | 19.3 | 0.00 | 0.00 | 0.00 | 22 | 1024.1 |
| 20260507000123 | 20 | 317 | 9.7 | 19.3 | 0.00 | 0.00 | 0.00 | 23 | 1023.8 |
| 20260506235557 | 20 | 345 | 4.8 | 25.7 | 0.00 | 0.00 | 0.00 | 22 | 1023.9 |
| 20260506235100 | 19 | 57 | 11.3 | 25.7 | 0.00 | 0.00 | 0.00 | 24 | 1024.1 |
| 20260506234618 | 19 | 46 | 3.2 | 20.9 | 0.00 | 0.00 | 0.00 | 23 | 1024.1 |
| 20260506234058 | 19 | 328 | 0.0 | 20.9 | 0.00 | 0.00 | 0.00 | 23 | 1024.0 |
| 20260506233601 | 19 | 59 | 9.7 | 20.9 | 0.00 | 0.00 | 0.00 | 22 | 1024.1 |
| 20260506233059 | 19 | 167 | 4.8 | 17.7 | 0.00 | 0.00 | 0.00 | 23 | 1024.1 |
| 20260506232557 | 18 | 0 | 6.4 | 20.9 | 0.00 | 0.00 | 0.00 | 22 | 1024.0 |
| 20260506232057 | 18 | 307 | 9.7 | 25.7 | 0.00 | 0.00 | 0.00 | 23 | 1024.0 |
| 20260506231556 | 19 | 98 | 11.3 | 25.7 | 0.00 | 0.00 | 0.00 | 22 | 1024.2 |
| 20260506231057 | 20 | 63 | 9.7 | 22.5 | 0.00 | 0.00 | 0.00 | 21 | 1023.9 |
| 20260506230558 | 20 | 52 | 4.8 | 14.5 | 0.00 | 0.00 | 0.00 | 23 | 1024.1 |
| 20260506230103 | 20 | 317 | 1.6 | 9.7 | 0.00 | 0.00 | 0.00 | 25 | 1024.0 |
| 20260506225557 | 20 | 0 | 1.6 | 9.7 | 0.00 | 0.00 | 0.00 | 25 | 1024.0 |
| 20260506225057 | 20 | 49 | 3.2 | 9.7 | 0.00 | 0.00 | 0.00 | 25 | 1024.1 |
| 20260506224556 | 20 | 70 | 3.2 | 8.0 | 0.00 | 0.00 | 0.00 | 27 | 1024.1 |
| 20260506224056 | 20 | 304 | 1.6 | 8.0 | 0.00 | 0.00 | 0.00 | 25 | 1024.0 |
| 20260506223559 | 21 | 39 | 3.2 | 8.0 | 0.00 | 0.00 | 0.00 | 25 | 1024.2 |
| 20260506223100 | 21 | 113 | 1.6 | 6.4 | 0.00 | 0.00 | 0.00 | 27 | 1024.2 |
| 20260506222559 | 21 | 0 | 1.6 | 6.4 | 0.00 | 0.00 | 0.00 | 25 | 1024.3 |
| 20260506222059 | 21 | 216 | 0.0 | 6.4 | 0.00 | 0.00 | 0.00 | 27 | 1024.4 |
| 20260506221603 | 21 | 321 | 1.6 | 9.7 | 0.00 | 0.00 | 0.00 | 28 | 1024.6 |
| 20260506221058 | 21 | 326 | 1.6 | 9.7 | 0.00 | 0.00 | 0.00 | 27 | 1024.5 |
| 20260506220558 | 21 | 1 | 1.6 | 6.4 | 0.00 | 0.00 | 0.00 | 26 | 1024.8 |
| 20260506220059 | 21 | 214 | 0.0 | 6.4 | 0.00 | 0.00 | 0.00 | 26 | 1024.8 |
| 20260506215558 | 21 | 309 | 1.6 | 6.4 | 0.00 | 0.00 | 0.00 | 27 | 1024.7 |
| 20260506215058 | 21 | 0 | 1.6 | 4.8 | 0.00 | 0.00 | 0.00 | 28 | 1024.9 |
| 20260506214602 | 21 | 224 | 0.0 | 6.4 | 0.00 | 0.00 | 0.00 | 28 | 1025.0 |
| 20260506214058 | 21 | 240 | 0.0 | 12.9 | 0.00 | 0.00 | 0.00 | 30 | 1025.0 |
| 20260506213601 | 20 | 0 | 1.6 | 12.9 | 0.00 | 0.00 | 0.00 | 29 | 1025.0 |
| 20260506213103 | 19 | 9 | 3.2 | 14.5 | 0.00 | 0.00 | 0.00 | 29 | 1024.9 |
| 20260506212559 | 19 | 83 | 3.2 | 14.5 | 0.00 | 0.00 | 0.00 | 30 | 1025.1 |
| 20260506212059 | 20 | 53 | 3.2 | 11.3 | 0.00 | 0.00 | 0.00 | 29 | 1024.9 |
| 20260506211603 | 20 | 255 | 4.8 | 11.3 | 0.00 | 0.00 | 0.00 | 30 | 1025.1 |
| 20260506211104 | 20 | 49 | 1.6 | 8.0 | 0.00 | 0.00 | 0.00 | 30 | 1024.9 |
| 20260506210559 | 20 | 70 | 3.2 | 8.0 | 0.00 | 0.00 | 0.00 | 30 | 1025.1 |
| 20260506205558 | 21 | 117 | 1.6 | 9.7 | 0.00 | 0.00 | 0.00 | 29 | 1025.1 |
| 20260506205058 | 20 | 321 | 1.6 | 9.7 | 0.00 | 0.00 | 0.00 | 30 | 1025.1 |
| 20260506204600 | 20 | 20 | 0.0 | 8.0 | 0.00 | 0.00 | 0.00 | 29 | 1025.1 |
| 20260506204058 | 21 | 313 | 1.6 | 8.0 | 0.00 | 0.00 | 0.00 | 29 | 1025.0 |
| 20260506203558 | 21 | 359 | 3.2 | 8.0 | 0.00 | 0.00 | 0.00 | 28 | 1025.1 |
| 20260506203106 | 21 | 273 | 1.6 | 9.7 | 0.00 | 0.00 | 0.00 | 29 | 1025.0 |
| 20260506202600 | 21 | 295 | 1.6 | 9.7 | 0.00 | 0.00 | 0.00 | 29 | 1025.1 |
| 20260506202058 | 21 | 307 | 3.2 | 9.7 | 0.00 | 0.00 | 0.00 | 29 | 1025.0 |
| 20260506201558 | 21 | 264 | 1.6 | 4.8 | 0.00 | 0.00 | 0.00 | 30 | 1025.0 |
| 20260506201057 | 20 | 183 | 1.6 | 4.8 | 0.00 | 0.00 | 0.00 | 29 | 1025.1 |
| 20260506200558 | 20 | 311 | 0.0 | 9.7 | 0.00 | 0.00 | 0.00 | 30 | 1025.1 |
| 20260506200111 | 19 | 26 | 4.8 | 12.9 | 0.00 | 0.00 | 0.00 | 31 | 1025.2 |
| 20260506195559 | 19 | 41 | 1.6 | 12.9 | 0.00 | 0.00 | 0.00 | 32 | 1025.2 |
| 20260506195059 | 19 | 328 | 4.8 | 12.9 | 0.00 | 0.00 | 0.00 | 33 | 1025.5 |
| 20260506194556 | 19 | 117 | 0.0 | 6.4 | 0.00 | 0.00 | 0.00 | 34 | 1025.4 |
| 20260506194059 | 20 | 282 | 1.6 | 6.4 | 0.00 | 0.00 | 0.00 | 31 | 1025.3 |
| 20260506193557 | 20 | 251 | 0.0 | 8.0 | 0.00 | 0.00 | 0.00 | 31 | 1025.5 |
| 20260506193100 | 20 | 266 | 0.0 | 8.0 | 0.00 | 0.00 | 0.00 | 30 | 1025.3 |
| 20260506192559 | 19 | 305 | 0.0 | 8.0 | 0.00 | 0.00 | 0.00 | 31 | 1025.5 |
| 20260506192058 | 19 | 0 | 1.6 | 8.0 | 0.00 | 0.00 | 0.00 | 31 | 1025.6 |
| 20260506191606 | 19 | 72 | 3.2 | 8.0 | 0.00 | 0.00 | 0.00 | 30 | 1025.6 |
| 20260506191059 | 20 | 321 | 3.2 | 6.4 | 0.00 | 0.00 | 0.00 | 30 | 1025.5 |
| 20260506190558 | 19 | 89 | 0.0 | 6.4 | 0.00 | 0.00 | 0.00 | 31 | 1025.5 |
| 20260506190059 | 19 | 287 | 1.6 | 8.0 | 0.00 | 0.00 | 0.00 | 31 | 1025.6 |
| 20260506185602 | 18 | 234 | 0.0 | 8.0 | 0.00 | 0.00 | 0.00 | 34 | 1025.5 |
| 20260506185059 | 18 | 165 | 3.2 | 11.3 | 0.00 | 0.00 | 0.00 | 33 | 1025.6 |
| 20260506184604 | 18 | 295 | 3.2 | 11.3 | 0.00 | 0.00 | 0.00 | 33 | 1025.6 |
| 20260506184059 | 18 | 287 | 4.8 | 11.3 | 0.00 | 0.00 | 0.00 | 32 | 1025.5 |
| 20260506183559 | 17 | 44 | 0.0 | 9.7 | 0.00 | 0.00 | 0.00 | 35 | 1025.7 |
| 20260506183104 | 17 | 48 | 4.8 | 9.7 | 0.00 | 0.00 | 0.00 | 34 | 1025.7 |
| 20260506182558 | 18 | 45 | 0.0 | 6.4 | 0.00 | 0.00 | 0.00 | 35 | 1025.6 |
| 20260506182058 | 18 | 10 | 1.6 | 6.4 | 0.00 | 0.00 | 0.00 | 35 | 1025.7 |
| 20260506181607 | 18 | 288 | 1.6 | 9.7 | 0.00 | 0.00 | 0.00 | 34 | 1025.5 |
| 20260506181059 | 18 | 282 | 1.6 | 9.7 | 0.00 | 0.00 | 0.00 | 34 | 1025.6 |
| 20260506180559 | 18 | 255 | 1.6 | 9.7 | 0.00 | 0.00 | 0.00 | 36 | 1025.6 |
| 20260506180059 | 18 | 322 | 0.0 | 6.4 | 0.00 | 0.00 | 0.00 | 33 | 1025.6 |
| 20260506175558 | 18 | 27 | 1.6 | 6.4 | 0.00 | 0.00 | 0.00 | 35 | 1025.6 |
| 20260506175058 | 18 | 292 | 1.6 | 6.4 | 0.00 | 0.00 | 0.00 | 35 | 1025.6 |
| 20260506174557 | 18 | 313 | 1.6 | 8.0 | 0.00 | 0.00 | 0.00 | 35 | 1025.5 |
| 20260506174058 | 17 | 0 | 3.2 | 8.0 | 0.00 | 0.00 | 0.00 | 37 | 1025.5 |
| 20260506173558 | 16 | 72 | 3.2 | 9.7 | 0.00 | 0.00 | 0.00 | 39 | 1025.5 |
| 20260506173126 | 16 | 218 | 4.8 | 9.7 | 0.00 | 0.00 | 0.00 | 38 | 1025.3 |
| 20260506172558 | 16 | 288 | 1.6 | 8.0 | 0.00 | 0.00 | 0.00 | 38 | 1025.3 |
| 20260506172058 | 16 | 298 | 4.8 | 8.0 | 0.00 | 0.00 | 0.00 | 39 | 1025.3 |
| 20260506171604 | 16 | 54 | 4.8 | 8.0 | 0.00 | 0.00 | 0.00 | 39 | 1025.1 |
| 20260506171059 | 17 | 275 | 1.6 | 4.8 | 0.00 | 0.00 | 0.00 | 39 | 1025.3 |
| 20260506170559 | 16 | 66 | 1.6 | 6.4 | 0.00 | 0.00 | 0.00 | 39 | 1025.3 |
| 20260506170109 | 16 | 27 | 1.6 | 6.4 | 0.00 | 0.00 | 0.00 | 43 | 1025.3 |
| 20260506165559 | 16 | 50 | 1.6 | 4.8 | 0.00 | 0.03 | 0.00 | 48 | 1025.3 |
| 20260506165059 | 15 | 0 | 1.6 | 4.8 | 0.00 | 0.03 | 0.00 | 46 | 1025.3 |
| 20260506164559 | 14 | 0 | 0.0 | 4.8 | 0.00 | 0.03 | 0.00 | 53 | 1025.2 |
| 20260506164058 | 13 | 0 | 1.6 | 4.8 | 0.00 | 0.03 | 0.00 | 54 | 1025.2 |
| 20260506163558 | 13 | 308 | 0.0 | 3.2 | 0.00 | 0.03 | 0.00 | 54 | 1025.1 |
| 20260506163100 | 13 | 70 | 0.0 | 6.4 | 0.00 | 0.03 | 0.00 | 57 | 1025.3 |
| 20260506162558 | 12 | 0 | 1.6 | 6.4 | 0.00 | 0.03 | 0.00 | 59 | 1025.2 |
| 20260506162058 | 12 | 49 | 1.6 | 6.4 | 0.00 | 0.03 | 0.00 | 60 | 1025.3 |
| 20260506161559 | 11 | 23 | 1.6 | 8.0 | 0.00 | 0.03 | 0.00 | 63 | 1025.2 |
| 20260506161058 | 11 | 57 | 4.8 | 8.0 | 0.00 | 0.03 | 0.00 | 62 | 1025.0 |
| 20260506160558 | 11 | 9 | 1.6 | 4.8 | 0.00 | 0.03 | 0.00 | 62 | 1025.0 |
| 20260506160059 | 11 | 305 | 0.0 | 4.8 | 0.00 | 0.03 | 0.00 | 65 | 1025.1 |
| 20260506155602 | 10 | 53 | 1.6 | 6.4 | 0.00 | 0.13 | 0.00 | 64 | 1025.1 |
| 20260506155102 | 10 | 0 | 1.6 | 6.4 | 0.00 | 0.13 | 0.00 | 64 | 1025.1 |
| 20260506154613 | 10 | 34 | 3.2 | 6.4 | 0.00 | 0.13 | 0.00 | 66 | 1025.1 |
| 20260506154058 | 10 | 0 | 0.0 | 4.8 | 0.00 | 0.13 | 0.00 | 68 | 1025.1 |
| 20260506153558 | 9 | 45 | 1.6 | 4.8 | 0.00 | 0.13 | 0.00 | 70 | 1024.9 |
| 20260506153059 | 8 | 48 | 1.6 | 4.8 | 0.00 | 0.13 | 0.00 | 72 | 1024.9 |
| 20260506152559 | 8 | 56 | 0.0 | 4.8 | 0.00 | 0.13 | 0.00 | 74 | 1025.0 |
| 20260506152101 | 8 | 88 | 0.0 | 4.8 | 0.00 | 0.13 | 0.00 | 76 | 1025.0 |
| 20260506151558 | 7 | 94 | 1.6 | 4.8 | 0.00 | 0.13 | 0.00 | 75 | 1025.1 |
| 20260506151058 | 7 | 0 | 1.6 | 3.2 | 0.00 | 0.13 | 0.00 | 79 | 1025.1 |
| 20260506150600 | 7 | 46 | 0.0 | 3.2 | 0.00 | 0.13 | 0.00 | 80 | 1025.1 |
| 20260506150057 | 6 | 62 | 1.6 | 3.2 | 0.00 | 0.13 | 0.00 | 80 | 1025.2 |
| 20260506145559 | 6 | 77 | 1.6 | 3.2 | 0.00 | 0.25 | 0.00 | 79 | 1024.9 |
| 20260506145058 | 6 | 70 | 0.0 | 3.2 | 0.00 | 0.25 | 0.00 | 82 | 1025.1 |
| 20260506144607 | 6 | 65 | 1.6 | 3.2 | 0.00 | 0.25 | 0.00 | 82 | 1024.9 |
| 20260506144101 | 6 | 55 | 1.6 | 3.2 | 0.00 | 0.25 | 0.00 | 83 | 1024.8 |
| 20260506143602 | 5 | 0 | 0.0 | 1.6 | 0.00 | 0.25 | 0.00 | 83 | 1024.8 |
| 20260506143058 | 5 | 0 | 0.0 | 1.6 | 0.00 | 0.25 | 0.00 | 82 | 1024.6 |
| 20260506142558 | 5 | 0 | 0.0 | 1.6 | 0.00 | 0.25 | 0.00 | 84 | 1024.7 |
| 20260506142058 | 5 | 0 | 0.0 | 1.6 | 0.00 | 0.25 | 0.00 | 83 | 1024.7 |
| 20260506141602 | 5 | 0 | 0.0 | 0.0 | 0.00 | 0.25 | 0.00 | 85 | 1024.6 |
| 20260506141100 | 4 | 0 | 0.0 | 0.0 | 0.00 | 0.25 | 0.00 | 86 | 1024.5 |
| 20260506140602 | 3 | 0 | 0.0 | 0.0 | 0.00 | 0.25 | 0.00 | 87 | 1024.4 |
| 20260506140058 | 3 | 0 | 0.0 | 1.6 | 0.00 | 0.25 | 0.00 | 90 | 1024.4 |
| 20260506135559 | 2 | 0 | 0.0 | 3.2 | 0.00 | 0.28 | 0.00 | 92 | 1024.3 |
| 20260506135058 | 1 | 0 | 0.0 | 3.2 | 0.00 | 0.28 | 0.00 | 92 | 1024.2 |
| 20260506134556 | 0 | 169 | 0.0 | 1.6 | 0.00 | 0.28 | 0.00 | 92 | 1024.2 |
| 20260506134102 | 0 | 0 | 0.0 | 0.0 | 0.00 | 0.28 | 0.00 | 92 | 1024.0 |
| 20260506133559 | 0 | 0 | 0.0 | 0.0 | 0.00 | 0.28 | 0.00 | 92 | 1024.0 |
| 20260506133126 | 0 | 0 | 0.0 | 0.0 | 0.00 | 0.28 | 0.00 | 92 | 1023.8 |